Regional Weather Roundup
Issued by NWS Albany, NY

Home | Current Version | Previous Version | Graphics & Text | Print | Product List | Glossary On
Versions: 1 2 3 4 5 6 7 8 9 10 11 12 13 14 15 16 17 18 19 20 21 22 23 24 25 26 27 28 29 30 31 32 33 34 35 36 37 38 39 40 41 42 43 44 45 46 47 48 49 50
000
ASUS41 KALY 190910
RWRALY

NEW YORK STATE HOURLY WEATHER ROUNDUP
NATIONAL WEATHER SERVICE ALBANY NY
500 AM EDT FRI SEP 19 2014

NOTE: "FAIR" INDICATES FEW OR NO CLOUDS BELOW 12,000 FEET WITH NO
SIGNIFICANT WEATHER AND/OR NO OBSTRUCTIONS TO VISIBILITY.

NYZ032-033-038>043-046>054-057>066-NYZ062>081-191000-
EAST


CITY           SKY/WX    TMP DP  RH WIND       PRES   REMARKS
ALBANY         PTCLDY    42  35  76 N6        30.31R
GLENS FALLS    CLEAR     34  32  92 CALM      30.32R FOG
POUGHKEEPSIE   CLEAR     47  42  83 N5        30.25R
NEWBURGH       MOCLDY    52  48  87 NE7       30.25
MONTGOMERY     PTCLDY    47  42  83 NE7       30.25R
WHITE PLAINS   PTCLDY    52  49  89 CALM      30.21R
ISLIP          CLEAR     56  49  77 NE13      30.19R
NEW YORK CITY  PTCLDY    59  50  72 NE12      30.20R
CENTRAL PARK   CLEAR     59  48  67 NE9       30.23R
$$

NYZ005>009-017-018-044>046-055-056-191000-
CENTRAL


CITY           SKY/WX    TMP DP  RH WIND       PRES   REMARKS
FULTON         CLEAR     35  32  88 NE3       30.31S
SYRACUSE       PTCLDY    39  36  89 CALM      30.31R
ROME           CLEAR     35  33  92 CALM      30.32R
ELMIRA         FOG       40  40 100 CALM      30.28R VSB 1/4
BINGHAMTON     CLEAR     38  36  92 NE5       30.26R WCI  34
MONTICELLO     CLEAR     43  41  93 CALM      30.25R VSB 1
$$

NYZ026>034-041>043-191000-
NORTH


CITY           SKY/WX    TMP DP  RH WIND       PRES   REMARKS
WATERTOWN      CLEAR     34  28  79 CALM      30.34R
FORT DRUM      NOT AVBL
MASSENA        CLEAR     30  29  96 CALM      30.36R FOG
SARANAC LAKE   CLEAR     23  21  92 CALM      30.28R
PLATTSBURGH    CLEAR     33  31  92 CALM      30.34R
$$

NYZ001>004-010>016-019>021-191000-
WEST


CITY           SKY/WX    TMP DP  RH WIND       PRES   REMARKS
NIAGARA FALLS  PTCLDY    39  36  89 CALM      30.27R FOG
BUFFALO        CLEAR     41  38  89 E7        30.27R
DUNKIRK        CLEAR     39  38  96 NE3       30.25S
JAMESTOWN      CLOUDY    41  39  93 CALM      30.24R VSB<1/4
WELLSVILLE     FOG       41  40  96 E3        30.26R VSB 1/4
ROCHESTER      PTCLDY    44  35  70 E7        30.30R
PENN YAN       CLEAR     36  34  92 CALM      30.28R
$$

             KEY
       WCI = WIND CHILL INDEX
       VSB = VISIBILITY
       HX  = HEAT INDEX
$$



USA.gov is the U.S. government's official web portal to all federal, state and local government web resources and services.